TRANSPORTER-15 DA (66762 NORAD) Tracking and Keplerian Element Data

This shows tracking and keplerian element data for the satellite.

Feedback or suggestion? Click here.




ElementValue
Catalog66762
NameTRANSPORTER-15 DA
Epoch Orbit325
Epoch Day354.19135359
Epoch Year2025
RAAN65.8233
Inclination97.4418
Eccentricity0.000252
Argument of Perigee306.2069
Mean Anonmoly53.8931
Mean Motion15.1713775
Decay Rate-0.0006147
L11 66762U 25276DA 25354.19135359 -.00061470 00000+0 -31239-2 0 9993
L22 66762 97.4418 65.8233 0002520 306.2069 53.8931 15.17137750 3250



Live tracking and technical data element details for TRANSPORTER-15 DA (NORAD 66762). TRANSPORTER-15 DA can be tracked NOW for your location showing map with azimuth and elevation plus other details from your city location.







IsCatalogInMostPopularTable: catalog: 66762, numindb: 15
Update: records affected: 1



GetName: 66762 TRANSPORTER-15 DA

Hit Count: updated at: Mon, 20 Apr 2026 10:44:25 GMT